This is the latest recevied weather packets stored in our database for station/object IZ1UQG-N2. If no packets are shown the sender has not sent any weather packets the latest 10 day(s).
| Time | Temp. | Humidity | Pressure | Rain* | Wind** | Luminosity | Snow |
|---|---|---|---|---|---|---|---|
| 1777184829 | 15° C | 60% | 1015.1 hPa | 0 mm | - | 257 W/m² | - |
| 1777184811 | 15° C | 60% | 1015.2 hPa | 0 mm | - | 257 W/m² | - |
| 1777184753 | 15° C | 60% | 1015.1 hPa | 0 mm | - | 253 W/m² | - |
| 1777184692 | 15° C | 60% | 1015.1 hPa | 0 mm | - | 253 W/m² | - |
| 1777184650 | 15° C | 60% | 1015.1 hPa | 0 mm | - | 253 W/m² | - |
| 1777184632 | 14.44° C | 60% | 1015.1 hPa | 0 mm | - | 246 W/m² | - |
| 1777184571 | 14.44° C | 61% | 1015.3 hPa | 0 mm | - | 244 W/m² | - |
| 1777184511 | 14.44° C | 60% | 1015.2 hPa | 0 mm | - | 241 W/m² | - |
| 1777184471 | 14.44° C | 60% | 1015.2 hPa | 0 mm | - | 241 W/m² | - |
| 1777184452 | 14.44° C | 61% | 1015.2 hPa | 0 mm | - | 237 W/m² | - |
| 1777184392 | 14.44° C | 62% | 1015.2 hPa | 0 mm | - | 236 W/m² | - |
| 1777184331 | 14.44° C | 62% | 1015.2 hPa | 0 mm | - | 234 W/m² | - |
| 1777184291 | 14.44° C | 62% | 1015.2 hPa | 0 mm | - | 234 W/m² | - |
| 1777184273 | 15° C | 61% | 1015.1 hPa | 0 mm | - | 229 W/m² | - |
| 1777184213 | 15° C | 61% | 1015.2 hPa | 0 mm | - | 227 W/m² | - |
| 1777184153 | 15° C | 63% | 1015.2 hPa | 0 mm | - | 223 W/m² | - |
| 1777184110 | 15° C | 63% | 1015.2 hPa | 0 mm | - | 223 W/m² | - |
| 1777184092 | 15° C | 63% | 1015.2 hPa | 0 mm | - | 221 W/m² | - |
| 1777184032 | 14.44° C | 63% | 1015.2 hPa | 0 mm | - | 220 W/m² | - |
| 1777183972 | 14.44° C | 63% | 1015.2 hPa | 0 mm | - | 216 W/m² | - |
| 1777183929 | 14.44° C | 63% | 1015.2 hPa | 0 mm | - | 216 W/m² | - |
| 1777183911 | 14.44° C | 63% | 1015.3 hPa | 0 mm | - | 211 W/m² | - |
| 1777183853 | 14.44° C | 63% | 1015.3 hPa | 0 mm | - | 209 W/m² | - |
| 1777183793 | 14.44° C | 64% | 1015.2 hPa | 0 mm | - | 207 W/m² | - |
| 1777183750 | 14.44° C | 64% | 1015.2 hPa | 0 mm | - | 207 W/m² | - |
* Rain latest hour (hover to see other rain measurements)
** Current wind speed in m/s (hover to see current wind gust speed)